Location: Unspecified
(52.4292°N, 19.3359°E)
Time: 00:52:50
(UTC+02:00)

SR - Pass Details

Date: 05 June 2024
Orbit: 580 x 858 km, 66.7° (Epoch: 12 June)

Event Time Altitude Azimuth Distance (km) Brightness Sun altitude
Rises 20:37:25 0° 316° (NW) 2,933 ? 1.9°
Reaches altitude 10° 20:40:33 10° 338° (NNW) 1,978 ? 1.5°
Maximum altitude 20:43:19 16° 17° (NNE) 1,585 ? 1.1°
Drops below altitude 10° 20:46:01 10° 57° (ENE) 1,921 ? 0.8°
Sets 20:49:00 0° 79° (E) 2,805 ? 0.5°
